SCP
0 0 0 0 0 0 0 0 0 0 0 0 0 0 0 0 0 0 0 0 0 0 0 0 0 0 0 0 0 -0 0 0 0 -0 0 0 0 0 0 0 0 0 0 0
0 0 0 0 0 0 0 0 0 0 0 0 0 0 0 0 0 0 0 0 0 0 0 0 0 0 -0 0 0 0 0 0 0 0 0 0 0 0 0 0 0 0 0 0
0 0 0 0 0 0 0 0 0 0 0 0 0 0 0 0 0 0 0 0 0 0 0 0 0 0 0 0 -0 0 0 0 0 0 0 0 0 0 0 0 0 0 0 0
0 0 0 0 0 0 0 0 0 0 0 0 0 0 0 0 0 0 0 0 0 0 0 0 0 0 0 -0 -0 -0 -0 -0 -0 -0 -0 0 0 0 -0 -0 0 0 0 0
0 0 0 0 0 0 0 0 0 0 0 0 0 0 0 0 0 0 0 0 0 0 0 0 0 0 0 0 0 0 0 -0 0 -0 -0 -0 -0 -0 -0 0 0 0 0 0
0 0 0 0 0 0 0 0 0 0 0 0 0 0 0 0 -0 0 0 0 0 -0 -0 0 0 0 0 -0 0 -0 0 0 -0 -0 -0 -0 -0 -0 -0 -0 0 -0 0 0
0 0 0 0 0 0 0 0 0 0 0 0 0 0 0 0 0 -0 -0 0 0 0 -0 -0 -0 0 0 0 0 -0 -0 -0 0 -0 -0 0 -0 0 0 0 0 0 0 -0
0 0 0 0 0 0 0 0 0 0 0 0 0 0 0 0 0 0 -0 0 0 -0 -0 -0 0 0 0 0 0 0 0 0 0 0 0 -0 -0 0 0 0 -0 -0 -0 -0
0 0 0 0 0 0 0 0 0 0 0 0 0 0 0 0 0 0 0 -0 -0 -0 0 -0 -0 0 0 0 0 0 0 0 0 0 0 0 0 0 0 -0 0 0 0 0
0 0 0 0 0 0 0 0 0 0 0 0 0 0 0 0 0 0 0 0 0 0 0 -0 -0 -0 0 0 0 0 0 0 -0 -0 0 0 0 0 0 -0 0 0 0 0
0 0 0 0 0 0 0 0 0 0 0 0 0 0 0 0 0 0 -0 0 0 0 0 0 0 0 -0 0 -0 0 0 0 0 0 0 0 0 -0 0 -0 0 -0 0 0
0 0 0 0 0 0 0 0 0 0 0 0 0 -0 -0 -0 -0 0 0 0 0 0 0 0 0 -0 0 0 -0 0 0 0 0 0 0 0 0 0 0 -0 -0 0 0 0
0 0 0 0 0 0 0 0 0 0 0 0 0 0 0 0 0 0 0 0 0 0 0 0 -0 -0 0 0 0 0 0 0 0 -0 0 -0 -0 0 0 -0 -0 0 0 0
0 0 0 0 0 0 0 0 0 0 0 0 0 0 0 0 0 0 -0 0 0 0 0 0 0 0 0 -0 0 0 0 0 0 0 0 -0 0 0 -0 -0 0 0 0 0
0 0 0 0 0 0 0 0 0 0 0 0 0 0 0 0 0 0 0 -0 0 0 0 0 0 0 0 -0 -0 0 0 0 0 0 0 0 0 -0 -0 -0 -0 -0 0 0
0 0 0 0 0 0 0 0 0 0 0 0 0 0 0 0 0 0 0 0 0 0 0 0 0 0 0 0 -0 -0 0 0 0 0 0 0 -0 -0 -0 -0 -0 0 0 0
0 0 0 0 0 0 0 0 0 0 0 0 0 0 0 0 0 0 0 0 0 0 0 0 0 0 0 0 0 -0 -0 -0 -0 0 0 0 -0 -0 -0 0 0 0 -0 0
0 0 0 0 0 0 0 0 0 0 0 0 0 0 0 0 0 0 0 0 0 0 0 0 0 0 0 0 0 -0 -0 -0 -0 -0 -0 0 -0 -0 0 0 0 0 0 0
0 0 0 0 0 0 0 0 0 0 0 0 0 0 0 0 0 0 0 0 0 0 0 0 0 0 0 -0 0 0 -0 0 0 0 0 0 0 -0 0 0 0 0 0 0
0 0 0 0 0 0 0 0 0 0 0 0 0 0 0 0 0 0 0 0 0 0 0 0 0 -0 -0 -0 0 0 0 0 0 0 0 0 -0 -0 0 0 0 0 0 0
0 0 0 0 0 0 0 0 0 0 0 0 0 0 0 0 0 -0 0 0 0 0 0 0 0 -0 -0 -0 0 -0 0 0 0 0 0 0 0 0 0 0 0 0 0 0
0 0 0 0 0 0 0 0 0 0 0 0 0 0 0 0 0 0 0 -0 0 -0 0 0 -0 0 0 0 0 -0 0 0 0 0 0 -0 0 0 0 0 0 0 -0 -0
0 0 0 0 0 0 0 0 0 0 0 0 0 0 0 0 0 0 0 0 0 0 -0 -0 -0 0 0 0 0 -0 0 0 0 0 0 0 -0 -0 -0 0 -0 -0 -0 -0
0 0 0 0 0 0 0 0 0 0 -0 0 0 0 0 0 0 0 0 0 0 0 -0 -0 -0 0 0 0 0 -0 0 0 0 0 0 -0 -0 0 0 0 0 0 0 -0
0 0 0 0 0 0 0 0 0 -0 -0 0 0 0 -0 0 0 0 0 0 0 0 0 0 0 -0 0 0 0 -0 0 0 0 -0 0 -0 -0 -0 0 0 0 0 0 0
0 0 0 0 0 0 0 0 -0 0 0 0 0 0 0 -0 0 0 0 -0 0 0 0 0 -0 -0 0 0 -0 -0 -0 0 0 -0 -0 0 0 -0 0 0 0 0 0 0
0 0 0 0 0 0 0 0 0 0 0 -0 0 0 0 0 0 0 0 0 0 0 -0 0 0 0 0 0 0 -0 -0 0 0 0 -0 0 0 -0 0 0 0 0 0 0
Wind_Speed_500mb
50 52 55 59 63 66 51 13 4 9 16 7 3 8 13 9 10 10 17 17 18 18 20 25 27 23 15 33 29 33 13 14 21 24 14 12 15 19 25 20 34 28 20 11
50 54 50 50 56 54 49 20 7 11 10 4 8 9 13 10 14 13 9 12 14 19 24 13 15 24 28 33 29 10 19 8 18 6 15 17 17 19 29 25 18 30 30 8
48 47 49 48 55 44 28 12 5 4 9 5 12 16 4 10 10 21 12 23 26 22 25 24 21 32 21 24 30 33 20 24 28 25 28 15 16 21 18 24 23 29 33 36
44 43 44 48 51 35 19 12 3 7 6 1 16 17 11 16 11 9 24 12 15 22 15 38 40 27 36 41 43 41 12 22 31 32 31 29 32 33 34 37 37 34 36 36
45 42 43 48 51 32 10 11 10 11 15 13 15 4 5 12 8 19 20 24 26 29 33 35 48 39 33 14 22 18 13 11 21 29 27 30 37 41 44 42 41 37 42 48
42 45 47 48 36 20 7 10 10 6 13 8 7 5 12 24 32 23 19 25 31 34 35 42 59 61 56 37 21 20 11 10 10 24 10 21 28 38 38 37 40 34 39 36
46 48 45 38 16 11 14 16 14 6 10 8 13 14 27 24 28 30 49 43 33 31 55 64 53 43 39 31 28 33 10 16 10 15 11 13 10 16 15 18 27 31 35 32
44 46 37 27 8 7 13 15 13 8 7 18 32 12 22 31 34 32 39 32 28 44 42 20 15 2 3 6 11 13 28 20 8 8 13 30 37 3 8 15 40 31 40 40
43 41 37 26 16 13 14 19 19 17 11 9 15 35 30 19 15 24 20 31 31 22 17 10 11 6 6 7 15 14 11 16 7 11 9 9 4 5 4 16 22 19 17 20
43 37 34 29 21 15 20 23 21 22 16 25 17 12 20 12 11 10 31 16 17 6 11 6 5 7 9 8 11 10 6 6 22 26 12 14 11 21 4 8 6 26 27 35
43 39 35 30 23 17 19 20 20 24 24 50 44 40 39 17 17 7 19 21 1 11 8 6 6 6 9 7 14 8 6 8 2 4 10 5 32 31 9 21 53 46 45 41
42 39 34 29 25 16 17 24 16 25 37 43 55 58 57 61 58 44 11 11 14 10 6 4 6 5 7 12 7 11 7 6 7 8 11 30 43 35 55 60 56 47 46 46
42 40 35 27 23 24 19 30 31 31 36 50 26 9 11 14 17 27 18 16 14 10 10 8 5 10 6 6 10 14 14 19 7 21 16 31 48 53 42 51 57 52 40 47
44 42 39 30 28 29 27 30 25 27 18 12 10 14 22 25 30 38 47 30 10 15 9 9 7 8 5 11 18 23 20 17 18 27 28 53 26 51 55 55 31 31 38 35
45 42 40 37 36 36 34 33 33 34 25 11 26 52 10 12 17 33 37 46 35 12 6 7 6 9 9 15 15 17 8 9 5 19 48 35 45 60 58 35 37 35 39 42
43 42 41 43 40 28 14 10 12 12 34 10 7 16 15 12 13 19 31 35 36 19 7 7 10 13 12 7 13 18 17 16 26 31 44 53 53 59 34 46 56 50 39 34
41 43 46 38 29 25 15 10 8 9 21 8 10 10 9 12 12 9 14 25 20 19 9 13 11 19 16 6 17 30 25 28 37 33 46 48 45 45 53 62 63 47 19 21
43 44 39 27 18 19 24 24 29 17 16 10 6 8 15 11 11 11 17 14 20 16 9 9 10 8 12 10 23 19 23 31 34 38 39 38 48 43 52 64 68 53 23 25
44 39 27 16 7 7 7 13 15 30 25 8 9 5 6 3 11 5 10 12 7 10 7 8 9 7 11 20 20 24 25 28 36 42 40 40 46 48 52 62 62 54 58 41
39 22 5 7 8 13 15 13 11 18 22 17 9 19 12 10 9 6 7 9 2 5 11 10 7 10 31 33 30 16 17 25 31 43 50 51 52 48 53 58 64 66 59 44
25 14 8 20 15 8 10 10 13 17 9 16 16 34 21 14 10 8 4 3 6 6 5 5 4 8 4 3 1 5 15 23 28 32 37 39 35 39 45 58 59 56 55 48
30 31 37 20 5 14 10 9 9 12 9 13 13 12 20 9 14 10 3 5 7 7 2 6 5 2 5 4 1 5 12 21 29 33 36 37 33 36 39 44 52 52 44 40
18 6 8 7 7 7 11 9 8 6 7 8 6 4 8 12 15 9 5 7 5 2 5 5 6 5 5 6 2 5 11 18 27 31 33 35 34 30 36 41 43 43 43 36
7 6 10 9 7 8 7 16 14 19 21 24 18 13 8 12 9 3 7 5 2 4 4 5 5 5 7 9 5 4 12 17 22 29 32 34 35 33 33 34 38 41 45 39
8 8 9 6 15 26 25 23 25 29 24 29 22 16 14 8 6 3 2 7 4 6 4 6 13 4 8 10 4 4 10 14 21 28 28 32 32 31 27 30 32 35 39 38
5 8 12 19 28 30 35 27 16 17 20 24 24 9 6 5 3 3 7 4 6 3 5 16 13 7 8 8 4 2 4 8 12 21 24 26 30 31 28 26 28 29 29 38
7 8 18 26 29 35 32 32 30 26 24 9 8 5 6 3 3 3 2 4 3 18 23 15 12 7 9 10 5 6 1 6 11 15 19 21 23 26 28 31 28 24 25 26
Wind_Direction_500mb
343 349 344 347 350 352 4 1 256 320 354 262 311 302 341 327 285 277 288 282 289 295 306 298 287 277 274 322 318 307 359 295 290 285 171 182 260 280 262 234 224 247 293 98
344 342 343 346 350 356 354 339 299 336 25 354 325 333 301 269 291 308 295 284 292 299 298 298 283 280 301 300 301 327 359 283 311 252 178 193 231 247 277 277 304 256 231 174
342 340 343 346 352 356 359 340 326 6 52 49 333 341 308 297 287 282 265 276 288 278 287 281 271 286 289 285 292 306 298 278 266 278 305 313 291 280 243 262 268 242 247 256
342 339 341 344 352 356 12 1 21 1 319 313 334 303 280 300 318 286 306 280 266 296 288 304 286 299 311 294 287 269 255 267 267 267 276 279 276 272 264 252 254 264 268 264
338 336 332 336 338 348 10 345 347 324 287 295 325 242 291 301 299 312 291 277 298 308 291 286 290 300 292 270 292 288 236 262 280 280 268 263 271 262 252 247 247 253 258 262
335 334 332 334 341 358 351 351 308 281 302 301 301 322 332 321 322 301 261 293 294 291 298 306 290 283 275 259 259 262 279 277 287 266 318 300 275 254 252 253 254 258 259 266
329 328 338 347 347 6 325 311 323 268 291 297 292 281 299 299 299 282 290 290 280 292 305 301 286 259 255 255 254 226 232 243 263 281 298 250 53 39 334 317 305 305 283 279
332 332 335 343 350 317 303 295 293 252 274 291 292 254 311 299 305 299 299 292 304 310 306 295 294 240 185 202 213 242 225 228 240 252 233 274 288 323 331 345 303 287 279 275
331 331 329 328 308 274 276 280 276 270 289 249 298 304 291 292 298 301 296 319 313 304 287 284 309 341 322 303 342 183 202 221 266 210 244 268 94 120 24 327 273 35 343 305
331 331 325 324 317 273 261 274 272 270 252 274 282 285 302 280 270 276 299 331 321 262 328 332 297 301 340 327 314 322 296 176 223 244 262 268 66 354 33 235 1 333 321 296
332 331 324 320 317 310 258 262 265 256 267 282 277 277 270 247 240 262 305 321 142 292 350 327 331 297 334 292 310 301 290 317 338 264 259 260 341 327 227 303 304 298 291 283
329 327 322 322 318 304 268 271 254 264 263 262 287 281 267 258 256 259 245 273 324 282 306 336 301 287 314 324 295 302 294 354 302 224 268 289 291 288 287 289 268 272 276 274
328 328 322 318 319 317 281 266 266 283 285 290 276 273 264 232 207 220 223 244 218 233 252 304 285 274 229 279 295 304 305 305 270 307 319 303 320 302 289 294 265 267 267 270
327 323 323 322 311 304 285 272 263 252 272 280 285 291 282 271 255 228 228 238 231 250 236 253 261 268 229 278 280 289 274 302 321 296 314 324 311 303 304 301 264 275 275 274
324 322 321 319 309 299 291 276 259 241 220 288 296 305 263 221 218 229 232 231 234 264 235 232 248 267 275 260 277 263 244 308 280 310 315 315 312 311 305 315 304 281 273 275
322 318 317 314 307 298 293 300 221 235 222 267 288 306 277 227 247 247 222 221 226 227 245 242 249 251 259 284 289 297 306 298 317 308 315 317 308 320 321 318 308 297 276 264
321 318 314 309 294 264 206 240 235 252 188 246 279 278 223 222 236 186 187 200 212 219 232 226 230 246 205 254 275 299 324 333 327 335 328 324 332 337 341 335 340 344 321 266
323 319 311 303 294 244 255 249 237 202 201 234 262 260 259 194 216 198 184 188 206 221 238 246 241 219 227 258 255 302 335 337 338 346 340 346 341 348 343 347 356 3 344 280
327 320 311 290 253 232 254 226 231 230 221 251 230 245 289 221 252 212 194 205 209 216 226 238 281 245 229 254 299 322 350 343 338 345 349 356 352 350 344 345 358 2 20 61
333 328 288 253 232 249 277 263 221 211 202 235 244 233 244 277 266 203 220 174 243 244 212 211 240 251 259 276 286 301 343 342 347 350 351 353 352 345 346 354 7 15 28 54
357 336 283 276 270 278 231 250 217 190 221 214 223 231 238 240 247 269 256 148 223 262 134 263 218 274 331 226 168 46 351 350 354 353 352 353 353 351 349 357 8 20 34 41
310 294 290 295 260 227 236 226 203 226 245 186 230 200 202 232 220 233 179 225 221 257 41 263 261 292 291 241 180 50 7 1 360 3 358 358 4 360 2 9 12 20 34 46
311 280 264 243 225 244 234 223 225 237 229 199 189 190 210 206 217 208 206 231 234 331 249 261 276 41 196 193 197 31 18 12 5 3 7 9 9 17 14 18 20 31 36 41
287 278 273 238 203 241 287 317 328 320 347 318 280 222 189 214 188 204 223 178 206 240 243 251 6 348 206 180 155 56 25 12 10 10 11 16 17 15 22 27 26 36 45 43
270 257 256 251 333 317 321 347 346 337 337 324 321 294 189 205 184 211 58 174 235 233 256 -0 12 323 198 173 177 24 20 15 13 13 16 15 17 24 27 31 28 40 52 57
277 265 290 313 320 328 320 330 331 321 319 299 276 271 239 211 117 159 200 190 215 328 303 342 343 309 253 160 182 106 48 52 33 18 21 21 24 24 28 34 36 36 48 57
262 270 294 282 292 306 313 320 318 322 304 277 274 299 320 38 69 248 244 244 29 331 344 329 335 269 247 237 197 233 283 64 67 44 25 25 32 41 39 35 32 38 46 54
Wind_Speed_850mb
50 52 55 59 63 66 51 13 4 9 16 7 3 8 13 9 10 10 17 17 18 18 20 25 27 23 15 33 29 33 13 14 21 24 14 12 15 19 25 20 34 28 20 11
50 54 50 50 56 54 49 20 7 11 10 4 8 9 13 10 14 13 9 12 14 19 24 13 15 24 28 33 29 10 19 8 18 6 15 17 17 19 29 25 18 30 30 8
48 47 49 48 55 44 28 12 5 4 9 5 12 16 4 10 10 21 12 23 26 22 25 24 21 32 21 24 30 33 20 24 28 25 28 15 16 21 18 24 23 29 33 36
44 43 44 48 51 35 19 12 3 7 6 1 16 17 11 16 11 9 24 12 15 22 15 38 40 27 36 41 43 41 12 22 31 32 31 29 32 33 34 37 37 34 36 36
45 42 43 48 51 32 10 11 10 11 15 13 15 4 5 12 8 19 20 24 26 29 33 35 48 39 33 14 22 18 13 11 21 29 27 30 37 41 44 42 41 37 42 48
42 45 47 48 36 20 7 10 10 6 13 8 7 5 12 24 32 23 19 25 31 34 35 42 59 61 56 37 21 20 11 10 10 24 10 21 28 38 38 37 40 34 39 36
46 48 45 38 16 11 14 16 14 6 10 8 13 14 27 24 28 30 49 43 33 31 55 64 53 43 39 31 28 33 10 16 10 15 11 13 10 16 15 18 27 31 35 32
44 46 37 27 8 7 13 15 13 8 7 18 32 12 22 31 34 32 39 32 28 44 42 20 15 2 3 6 11 13 28 20 8 8 13 30 37 3 8 15 40 31 40 40
43 41 37 26 16 13 14 19 19 17 11 9 15 35 30 19 15 24 20 31 31 22 17 10 11 6 6 7 15 14 11 16 7 11 9 9 4 5 4 16 22 19 17 20
43 37 34 29 21 15 20 23 21 22 16 25 17 12 20 12 11 10 31 16 17 6 11 6 5 7 9 8 11 10 6 6 22 26 12 14 11 21 4 8 6 26 27 35
43 39 35 30 23 17 19 20 20 24 24 50 44 40 39 17 17 7 19 21 1 11 8 6 6 6 9 7 14 8 6 8 2 4 10 5 32 31 9 21 53 46 45 41
42 39 34 29 25 16 17 24 16 25 37 43 55 58 57 61 58 44 11 11 14 10 6 4 6 5 7 12 7 11 7 6 7 8 11 30 43 35 55 60 56 47 46 46
42 40 35 27 23 24 19 30 31 31 36 50 26 9 11 14 17 27 18 16 14 10 10 8 5 10 6 6 10 14 14 19 7 21 16 31 48 53 42 51 57 52 40 47
44 42 39 30 28 29 27 30 25 27 18 12 10 14 22 25 30 38 47 30 10 15 9 9 7 8 5 11 18 23 20 17 18 27 28 53 26 51 55 55 31 31 38 35
45 42 40 37 36 36 34 33 33 34 25 11 26 52 10 12 17 33 37 46 35 12 6 7 6 9 9 15 15 17 8 9 5 19 48 35 45 60 58 35 37 35 39 42
43 42 41 43 40 28 14 10 12 12 34 10 7 16 15 12 13 19 31 35 36 19 7 7 10 13 12 7 13 18 17 16 26 31 44 53 53 59 34 46 56 50 39 34
41 43 46 38 29 25 15 10 8 9 21 8 10 10 9 12 12 9 14 25 20 19 9 13 11 19 16 6 17 30 25 28 37 33 46 48 45 45 53 62 63 47 19 21
43 44 39 27 18 19 24 24 29 17 16 10 6 8 15 11 11 11 17 14 20 16 9 9 10 8 12 10 23 19 23 31 34 38 39 38 48 43 52 64 68 53 23 25
44 39 27 16 7 7 7 13 15 30 25 8 9 5 6 3 11 5 10 12 7 10 7 8 9 7 11 20 20 24 25 28 36 42 40 40 46 48 52 62 62 54 58 41
39 22 5 7 8 13 15 13 11 18 22 17 9 19 12 10 9 6 7 9 2 5 11 10 7 10 31 33 30 16 17 25 31 43 50 51 52 48 53 58 64 66 59 44
25 14 8 20 15 8 10 10 13 17 9 16 16 34 21 14 10 8 4 3 6 6 5 5 4 8 4 3 1 5 15 23 28 32 37 39 35 39 45 58 59 56 55 48
30 31 37 20 5 14 10 9 9 12 9 13 13 12 20 9 14 10 3 5 7 7 2 6 5 2 5 4 1 5 12 21 29 33 36 37 33 36 39 44 52 52 44 40
18 6 8 7 7 7 11 9 8 6 7 8 6 4 8 12 15 9 5 7 5 2 5 5 6 5 5 6 2 5 11 18 27 31 33 35 34 30 36 41 43 43 43 36
7 6 10 9 7 8 7 16 14 19 21 24 18 13 8 12 9 3 7 5 2 4 4 5 5 5 7 9 5 4 12 17 22 29 32 34 35 33 33 34 38 41 45 39
8 8 9 6 15 26 25 23 25 29 24 29 22 16 14 8 6 3 2 7 4 6 4 6 13 4 8 10 4 4 10 14 21 28 28 32 32 31 27 30 32 35 39 38
5 8 12 19 28 30 35 27 16 17 20 24 24 9 6 5 3 3 7 4 6 3 5 16 13 7 8 8 4 2 4 8 12 21 24 26 30 31 28 26 28 29 29 38
7 8 18 26 29 35 32 32 30 26 24 9 8 5 6 3 3 3 2 4 3 18 23 15 12 7 9 10 5 6 1 6 11 15 19 21 23 26 28 31 28 24 25 26
Wind_Direction_850mb
343 349 344 347 350 352 4 1 256 320 354 262 311 302 341 327 285 277 288 282 289 295 306 298 287 277 274 322 318 307 359 295 290 285 171 182 260 280 262 234 224 247 293 98
344 342 343 346 350 356 354 339 299 336 25 354 325 333 301 269 291 308 295 284 292 299 298 298 283 280 301 300 301 327 359 283 311 252 178 193 231 247 277 277 304 256 231 174
342 340 343 346 352 356 359 340 326 6 52 49 333 341 308 297 287 282 265 276 288 278 287 281 271 286 289 285 292 306 298 278 266 278 305 313 291 280 243 262 268 242 247 256
342 339 341 344 352 356 12 1 21 1 319 313 334 303 280 300 318 286 306 280 266 296 288 304 286 299 311 294 287 269 255 267 267 267 276 279 276 272 264 252 254 264 268 264
338 336 332 336 338 348 10 345 347 324 287 295 325 242 291 301 299 312 291 277 298 308 291 286 290 300 292 270 292 288 236 262 280 280 268 263 271 262 252 247 247 253 258 262
335 334 332 334 341 358 351 351 308 281 302 301 301 322 332 321 322 301 261 293 294 291 298 306 290 283 275 259 259 262 279 277 287 266 318 300 275 254 252 253 254 258 259 266
329 328 338 347 347 6 325 311 323 268 291 297 292 281 299 299 299 282 290 290 280 292 305 301 286 259 255 255 254 226 232 243 263 281 298 250 53 39 334 317 305 305 283 279
332 332 335 343 350 317 303 295 293 252 274 291 292 254 311 299 305 299 299 292 304 310 306 295 294 240 185 202 213 242 225 228 240 252 233 274 288 323 331 345 303 287 279 275
331 331 329 328 308 274 276 280 276 270 289 249 298 304 291 292 298 301 296 319 313 304 287 284 309 341 322 303 342 183 202 221 266 210 244 268 94 120 24 327 273 35 343 305
331 331 325 324 317 273 261 274 272 270 252 274 282 285 302 280 270 276 299 331 321 262 328 332 297 301 340 327 314 322 296 176 223 244 262 268 66 354 33 235 1 333 321 296
332 331 324 320 317 310 258 262 265 256 267 282 277 277 270 247 240 262 305 321 142 292 350 327 331 297 334 292 310 301 290 317 338 264 259 260 341 327 227 303 304 298 291 283
329 327 322 322 318 304 268 271 254 264 263 262 287 281 267 258 256 259 245 273 324 282 306 336 301 287 314 324 295 302 294 354 302 224 268 289 291 288 287 289 268 272 276 274
328 328 322 318 319 317 281 266 266 283 285 290 276 273 264 232 207 220 223 244 218 233 252 304 285 274 229 279 295 304 305 305 270 307 319 303 320 302 289 294 265 267 267 270
327 323 323 322 311 304 285 272 263 252 272 280 285 291 282 271 255 228 228 238 231 250 236 253 261 268 229 278 280 289 274 302 321 296 314 324 311 303 304 301 264 275 275 274
324 322 321 319 309 299 291 276 259 241 220 288 296 305 263 221 218 229 232 231 234 264 235 232 248 267 275 260 277 263 244 308 280 310 315 315 312 311 305 315 304 281 273 275
322 318 317 314 307 298 293 300 221 235 222 267 288 306 277 227 247 247 222 221 226 227 245 242 249 251 259 284 289 297 306 298 317 308 315 317 308 320 321 318 308 297 276 264
321 318 314 309 294 264 206 240 235 252 188 246 279 278 223 222 236 186 187 200 212 219 232 226 230 246 205 254 275 299 324 333 327 335 328 324 332 337 341 335 340 344 321 266
323 319 311 303 294 244 255 249 237 202 201 234 262 260 259 194 216 198 184 188 206 221 238 246 241 219 227 258 255 302 335 337 338 346 340 346 341 348 343 347 356 3 344 280
327 320 311 290 253 232 254 226 231 230 221 251 230 245 289 221 252 212 194 205 209 216 226 238 281 245 229 254 299 322 350 343 338 345 349 356 352 350 344 345 358 2 20 61
333 328 288 253 232 249 277 263 221 211 202 235 244 233 244 277 266 203 220 174 243 244 212 211 240 251 259 276 286 301 343 342 347 350 351 353 352 345 346 354 7 15 28 54
357 336 283 276 270 278 231 250 217 190 221 214 223 231 238 240 247 269 256 148 223 262 134 263 218 274 331 226 168 46 351 350 354 353 352 353 353 351 349 357 8 20 34 41
310 294 290 295 260 227 236 226 203 226 245 186 230 200 202 232 220 233 179 225 221 257 41 263 261 292 291 241 180 50 7 1 360 3 358 358 4 360 2 9 12 20 34 46
311 280 264 243 225 244 234 223 225 237 229 199 189 190 210 206 217 208 206 231 234 331 249 261 276 41 196 193 197 31 18 12 5 3 7 9 9 17 14 18 20 31 36 41
287 278 273 238 203 241 287 317 328 320 347 318 280 222 189 214 188 204 223 178 206 240 243 251 6 348 206 180 155 56 25 12 10 10 11 16 17 15 22 27 26 36 45 43
270 257 256 251 333 317 321 347 346 337 337 324 321 294 189 205 184 211 58 174 235 233 256 -0 12 323 198 173 177 24 20 15 13 13 16 15 17 24 27 31 28 40 52 57
277 265 290 313 320 328 320 330 331 321 319 299 276 271 239 211 117 159 200 190 215 328 303 342 343 309 253 160 182 106 48 52 33 18 21 21 24 24 28 34 36 36 48 57
262 270 294 282 292 306 313 320 318 322 304 277 274 299 320 38 69 248 244 244 29 331 344 329 335 269 247 237 197 233 283 64 67 44 25 25 32 41 39 35 32 38 46 54